RSCU904 YBOK-YBOK

Flight info

Callsign RSCU904
Flight time 0h 14m
Altitude 2000
Route DCT
Aircraft A139/L-SDFGRY/LB1

Departure

Time 2026-04-17 11:26
Airport Oakey Army Aviation Centre (YBOK)

Arrival

Time 2026-04-17 11:41
Airport Oakey Army Aviation Centre (YBOK)
Time Latitude Longitude Altitude Speed Heading
2026-04-17 11:23 -27.41365 151.73624 1351 ft 0 kts
2026-04-17 11:23 -27.41364 151.73625 1352 ft 0 kts
2026-04-17 11:24 -27.41338 151.73598 1351 ft 8 kts 277°
2026-04-17 11:24 -27.41332 151.73549 1350 ft 9 kts 278°
2026-04-17 11:24 -27.41317 151.73445 1348 ft 7 kts 285°
2026-04-17 11:24 -27.41294 151.73434 1348 ft 5 kts
2026-04-17 11:25 -27.41230 151.73454 1349 ft 7 kts 111°
2026-04-17 11:25 -27.41258 151.73595 1502 ft 35 kts 115°
2026-04-17 11:25 -27.41372 151.74028 1693 ft 83 kts 103°
2026-04-17 11:25 -27.41336 151.74852 1789 ft 134 kts 61°
2026-04-17 11:26 -27.40903 151.75413 1809 ft 145 kts 37°
2026-04-17 11:26 -27.39740 151.76500 1782 ft 185 kts 33°
2026-04-17 11:26 -27.38721 151.77333 2083 ft 183 kts 30°
2026-04-17 11:26 -27.37717 151.78226 2347 ft 184 kts 34°
2026-04-17 11:27 -27.36998 151.79454 2686 ft 186 kts 55°
2026-04-17 11:27 -27.36589 151.80292 2885 ft 187 kts 56°
2026-04-17 11:27 -27.35758 151.82024 2809 ft 188 kts 55°
2026-04-17 11:27 -27.35154 151.83324 2483 ft 188 kts 53°
2026-04-17 11:28 -27.34748 151.84190 2282 ft 187 kts 54°
2026-04-17 11:28 -27.33946 151.85864 2306 ft 178 kts 58°
2026-04-17 11:28 -27.33527 151.86684 2426 ft 196 kts 56°
2026-04-17 11:28 -27.32631 151.88435 3140 ft 193 kts 56°
2026-04-17 11:29 -27.31977 151.89740 3718 ft 192 kts 56°
2026-04-17 11:29 -27.31317 151.91042 4270 ft 192 kts 56°
2026-04-17 11:29 -27.30652 151.92346 4760 ft 192 kts 55°
2026-04-17 11:29 -27.29925 151.93681 4002 ft 213 kts 44°
2026-04-17 11:30 -27.29061 151.94933 4028 ft 199 kts 55°
2026-04-17 11:30 -27.28410 151.96281 4078 ft 193 kts 55°
2026-04-17 11:30 -27.27769 151.97603 4067 ft 193 kts 55°
2026-04-17 11:30 -27.27344 151.98474 4062 ft 193 kts 55°
2026-04-17 11:31 -27.26478 152.00258 4045 ft 194 kts 55°
2026-04-17 11:31 -27.25840 152.01584 4044 ft 193 kts 55°
2026-04-17 11:31 -27.25206 152.02905 4052 ft 192 kts 55°
2026-04-17 11:31 -27.24576 152.04228 4042 ft 192 kts 55°
2026-04-17 11:32 -27.23959 152.05563 4008 ft 194 kts 60°
2026-04-17 11:32 -27.23811 152.06563 3958 ft 199 kts 87°
2026-04-17 11:32 -27.24620 152.08336 3943 ft 193 kts 139°
2026-04-17 11:32 -27.25834 152.08833 3926 ft 184 kts 179°
2026-04-17 11:33 -27.26652 152.08640 3924 ft 176 kts 205°
2026-04-17 11:33 -27.27468 152.07710 3940 ft 167 kts 243°
2026-04-17 11:33 -27.28080 152.06140 4025 ft 164 kts 245°
2026-04-17 11:33 -27.28532 152.04958 4037 ft 165 kts 245°
2026-04-17 11:34 -27.28989 152.03773 4032 ft 167 kts 245°
2026-04-17 11:34 -27.29447 152.02588 4034 ft 166 kts 245°
2026-04-17 11:34 -27.29756 152.01788 4036 ft 166 kts 245°
2026-04-17 11:34 -27.30220 152.00604 4039 ft 166 kts 245°
2026-04-17 11:35 -27.30849 151.99010 4028 ft 167 kts 245°
2026-04-17 11:35 -27.31317 151.97819 4033 ft 166 kts 245°
2026-04-17 11:35 -27.31779 151.96632 4036 ft 167 kts 245°
2026-04-17 11:35 -27.32088 151.95830 4036 ft 167 kts 245°
2026-04-17 11:36 -27.32704 151.94243 4039 ft 167 kts 245°
2026-04-17 11:36 -27.33172 151.93054 4037 ft 167 kts 245°
2026-04-17 11:36 -27.33641 151.91859 4038 ft 167 kts 245°
2026-04-17 11:36 -27.34107 151.90648 4029 ft 167 kts 245°
2026-04-17 11:37 -27.34400 151.89854 4056 ft 166 kts 242°
2026-04-17 11:37 -27.35166 151.88342 4037 ft 167 kts 239°
2026-04-17 11:37 -27.35742 151.87207 4040 ft 167 kts 239°
2026-04-17 11:37 -27.36124 151.86446 4033 ft 167 kts 239°
2026-04-17 11:38 -27.36893 151.84933 4032 ft 165 kts 239°
2026-04-17 11:38 -27.37454 151.83813 4028 ft 165 kts 239°
2026-04-17 11:38 -27.38025 151.82687 4029 ft 166 kts 239°
2026-04-17 11:38 -27.38599 151.81560 4025 ft 166 kts 239°
2026-04-17 11:39 -27.39176 151.80434 4028 ft 166 kts 239°
2026-04-17 11:39 -27.39565 151.79681 4027 ft 167 kts 239°
2026-04-17 11:39 -27.40339 151.78166 4028 ft 167 kts 239°
2026-04-17 11:39 -27.40913 151.77039 4032 ft 167 kts 239°
2026-04-17 11:40 -27.41499 151.75931 3684 ft 177 kts 249°
2026-04-17 11:40 -27.41524 151.75044 1860 ft 232 kts 294°
2026-04-17 11:40 -27.41130 151.73210 1792 ft 148 kts 283°
2026-04-17 11:40 -27.41027 151.72443 1806 ft 62 kts 187°
2026-04-17 11:41 -27.41170 151.72966 1514 ft 93 kts 95°
2026-04-17 11:41 -27.41242 151.73482 1403 ft 48 kts 80°
2026-04-17 11:41 -27.41266 151.73674 1350 ft 0 kts 95°
2026-04-17 11:41 -27.41266 151.73677 1350 ft 0 kts 97°
2026-04-17 11:42 -27.41267 151.73677 1350 ft 0 kts 94°
2026-04-17 11:42 -27.41325 151.73726 1352 ft 0 kts 182°